Omaha, IA

1:41 AM CDT on May 27, 2017 (GMT -0500)
Eppley Airfield

Weather History for KOMA - September, 2013

Change the Weather History Date:

Tuesday, September 17, 2013

  Actual Average Record
Temperature  
Mean Temperature 66 °F 65 °F  
Max Temperature 73 °F 77 °F 102 °F (1895)
Min Temperature 58 °F 53 °F 37 °F (1973)
Degree Days  
Heating Degree Days 0 3  
Month to date heating degree days 3 29  
Since 1 July heating degree days 8 37  
Cooling Degree Days 1 3  
Month to date cooling degree days 150 88  
Year to date cooling degree days 1216 1068  
Growing Degree Days 14 (Base 50)    
Moisture  
Dew Point 60 °F    
Average Humidity 88    
Maximum Humidity 97    
Minimum Humidity 79    
Precipitation  
Precipitation 0.13 in 0.09 in 1.13 in (1978)
Month to date precipitation 2.01 1.62  
Year to date precipitation 23.25 24.73  
Snow  
Snow 0.00 in 0.00 in - ()
Month to date snowfall 0.0 0.0  
Since 1 July snowfall 0.0 0.0  
Snow Depth 0.00 in    
Sea Level Pressure  
Sea Level Pressure 30.04 in    
Wind  
Wind Speed 13 mph (SE)    
Max Wind Speed 22 mph    
Max Gust Speed 26 mph    
Visibility 6 miles    
Events Rain    
T = Trace of Precipitation, MM = Missing Value Source: NWS Daily Summary

Daily Weather History Graph

Daily Weather History Graph

Search for Another Location

Airport or City:

Trip Planner

Search our weather history database for the weather conditions in past years. The results will help you decide how hot, cold, wet, or windy it might be!

Date:

Astronomy

Sep. 17, 2013 Rise Set
Actual Time 7:06 AM CDT 7:28 PM CDT
Civil Twilight 6:38 AM CDT 7:56 PM CDT
Nautical Twilight 6:06 AM CDT 8:28 PM CDT
Astronomical Twilight 5:32 AM CDT 9:02 PM CDT
Moon 6:17 PM CDT (9/17) 5:01 AM CDT (9/17)
Length of Visible Light 13h 17m
Length of Day
12h 22m
Waxing Gibbous, 96% of the Moon is Illuminated
Sep 17
Waxing Gibbous
Sep 19
Full
Sep 26
Last Quarter
Oct 4
New
Oct 11
First Quarter

Hourly Weather History & Observations

Time (CDT) Temp. Dew Point Humidity Pressure Visibility Wind Dir Wind Speed Gust Speed Precip Events Conditions
12:19 AM 59.0 °F 55.4 °F 88% 30.21 in 10.0 mi ESE 11.5 mph - 0.00 in Rain Light Rain
12:52 AM 59.0 °F 55.0 °F 87% 30.20 in 10.0 mi SE 10.4 mph - 0.00 in   Overcast
1:52 AM 57.9 °F 55.0 °F 90% 30.19 in 10.0 mi SE 9.2 mph - 0.00 in Rain Light Rain
2:52 AM 57.9 °F 55.0 °F 90% 30.17 in 10.0 mi SE 11.5 mph - 0.03 in Rain Light Rain
3:18 AM 57.2 °F 55.4 °F 94% 30.17 in 7.0 mi SE 11.5 mph - 0.01 in Rain Light Rain
3:52 AM 57.9 °F 55.0 °F 90% 30.15 in 5.0 mi SE 11.5 mph - 0.04 in Rain Rain
4:17 AM 57.2 °F 55.4 °F 94% 30.15 in 3.0 mi SE 10.4 mph - 0.05 in Rain Rain
4:52 AM 57.9 °F 55.9 °F 93% 30.14 in 9.0 mi SE 11.5 mph - 0.06 in Rain Light Rain
5:52 AM 57.9 °F 55.9 °F 93% 30.12 in 4.0 mi SE 12.7 mph - 0.00 in   Light Drizzle
6:52 AM 59.0 °F 55.9 °F 90% 30.12 in 5.0 mi SSE 12.7 mph - 0.00 in   Overcast
7:52 AM 59.0 °F 55.9 °F 90% 30.12 in 3.0 mi SSE 13.8 mph - N/A   Overcast
8:23 AM 59.0 °F 57.2 °F 94% 30.12 in 2.5 mi SSE 11.5 mph - N/A   Overcast
8:52 AM 59.0 °F 57.0 °F 93% 30.11 in 3.0 mi SE 13.8 mph - N/A   Overcast
9:52 AM 60.1 °F 57.9 °F 93% 30.11 in 3.0 mi SSE 10.4 mph - N/A   Overcast
10:11 AM 60.8 °F 57.2 °F 88% 30.11 in 1.0 mi SSE 11.5 mph - 0.00 in   Light Drizzle
10:30 AM 60.8 °F 59.0 °F 94% 30.11 in 3.0 mi SSE 9.2 mph - 0.00 in   Overcast
10:52 AM 61.0 °F 59.0 °F 93% 30.09 in 3.0 mi SE 12.7 mph - 0.00 in   Overcast
11:52 AM 63.0 °F 60.1 °F 90% 30.07 in 3.0 mi SSE 10.4 mph - 0.00 in   Overcast
12:52 PM 64.0 °F 61.0 °F 90% 30.04 in 4.0 mi SSE 12.7 mph - 0.00 in   Overcast
1:52 PM 66.0 °F 62.1 °F 87% 30.02 in 6.0 mi SSE 13.8 mph 18.4 mph N/A   Overcast
2:52 PM 66.9 °F 63.0 °F 87% 29.98 in 5.0 mi SSE 16.1 mph - N/A   Overcast
3:14 PM 68.0 °F 62.6 °F 83% 29.98 in 5.0 mi SSE 11.5 mph - N/A   Haze
3:52 PM 69.1 °F 64.0 °F 84% 29.96 in 5.0 mi SE 11.5 mph - N/A   Haze
4:42 PM 69.8 °F 64.4 °F 83% 29.94 in 6.0 mi SE 15.0 mph - N/A   Haze
4:52 PM 70.0 °F 64.0 °F 81% 29.92 in 6.0 mi SSE 12.7 mph - N/A   Haze
5:52 PM 71.1 °F 64.9 °F 81% 29.90 in 7.0 mi SE 16.1 mph - N/A   Mostly Cloudy
6:41 PM 71.6 °F 64.4 °F 78% 29.90 in 8.0 mi SE 10.4 mph - N/A   Overcast
6:52 PM 71.1 °F 64.9 °F 81% 29.89 in 8.0 mi SE 11.5 mph - N/A   Overcast
7:52 PM 71.1 °F 66.0 °F 84% 29.88 in 9.0 mi SSE 6.9 mph - N/A   Overcast
8:52 PM 72.0 °F 66.9 °F 84% 29.89 in 10.0 mi SSE 13.8 mph - N/A   Overcast
9:52 PM 72.0 °F 64.9 °F 78% 29.90 in 9.0 mi SSE 20.7 mph 26.5 mph N/A   Overcast
10:45 PM 71.6 °F 64.4 °F 78% 29.92 in 8.0 mi SSE 17.3 mph - N/A   Overcast
10:52 PM 71.1 °F 64.9 °F 81% 29.90 in 8.0 mi SSE 16.1 mph - N/A   Overcast
11:12 PM 71.6 °F 64.4 °F 78% 29.91 in 7.0 mi SSE 18.4 mph - N/A   Overcast
11:52 PM 70.0 °F 66.0 °F 87% 29.89 in 7.0 mi SSE 16.1 mph - N/A   Overcast